TimeCST,TemperatureF,Dew PointF,Humidity,Sea Level PressureIn,VisibilityMPH,Wind Direction,Wind SpeedMPH,Gust SpeedMPH,PrecipitationIn,Events,Conditions,WindDirDegrees,DateUTC
12:14 AM,34.0,28.9,82,30.03,10.0,WNW,9.2,-,N/A,,Overcast,300,2013-02-15 06:14:00
12:54 AM,33.1,28.9,85,30.06,9.0,NW,8.1,-,N/A,,Overcast,310,2013-02-15 06:54:00
1:05 AM,33.1,28.0,82,30.04,10.0,NW,9.2,-,N/A,,Overcast,310,2013-02-15 07:05:00
1:54 AM,32.0,25.0,75,30.08,10.0,NNW,8.1,20.7,N/A,,Overcast,330,2013-02-15 07:54:00
2:06 AM,30.9,25.0,79,30.07,10.0,NW,10.4,16.1,N/A,,Mostly Cloudy,320,2013-02-15 08:06:00
2:54 AM,30.0,24.1,79,30.10,10.0,NW,11.5,-,N/A,,Partly Cloudy,310,2013-02-15 08:54:00
3:10 AM,30.0,24.1,79,30.09,10.0,NW,10.4,-,N/A,,Mostly Cloudy,310,2013-02-15 09:10:00
3:54 AM,28.9,23.0,78,30.12,10.0,WNW,15.0,21.9,N/A,,Overcast,300,2013-02-15 09:54:00
4:54 AM,28.0,19.0,69,30.14,10.0,NW,6.9,16.1,N/A,,Overcast,310,2013-02-15 10:54:00
5:54 AM,25.0,16.0,69,30.17,10.0,NNW,9.2,-,N/A,,Mostly Cloudy,330,2013-02-15 11:54:00
6:54 AM,23.0,15.1,72,30.19,10.0,NW,6.9,-,N/A,,Scattered Clouds,320,2013-02-15 12:54:00
7:54 AM,24.1,15.1,69,30.22,10.0,NNW,10.4,-,N/A,,Partly Cloudy,330,2013-02-15 13:54:00
8:54 AM,25.0,14.0,63,30.25,10.0,NNW,10.4,20.7,N/A,,Clear,330,2013-02-15 14:54:00
9:54 AM,26.1,10.9,53,30.26,10.0,North,10.4,16.1,N/A,,Clear,360,2013-02-15 15:54:00
10:54 AM,30.0,12.0,47,30.26,10.0,NNW,8.1,-,N/A,,Clear,330,2013-02-15 16:54:00
11:54 AM,30.9,10.0,42,30.25,10.0,NNW,9.2,-,N/A,,Clear,330,2013-02-15 17:54:00
12:54 PM,33.1,10.9,40,30.24,10.0,North,9.2,-,N/A,,Clear,350,2013-02-15 18:54:00
1:54 PM,34.0,10.9,38,30.23,10.0,NNW,8.1,-,N/A,,Clear,340,2013-02-15 19:54:00
2:54 PM,33.1,10.0,38,30.22,10.0,WNW,11.5,-,N/A,,Clear,300,2013-02-15 20:54:00
3:54 PM,32.0,10.9,42,30.23,10.0,WNW,11.5,17.3,N/A,,Partly Cloudy,290,2013-02-15 21:54:00
4:54 PM,32.0,12.9,45,30.24,10.0,WNW,8.1,-,N/A,,Mostly Cloudy,300,2013-02-15 22:54:00
5:54 PM,28.9,10.0,45,30.25,10.0,WNW,10.4,-,N/A,,Clear,300,2013-02-15 23:54:00
6:54 PM,27.0,12.9,56,30.26,10.0,NW,9.2,17.3,N/A,,Clear,310,2013-02-16 00:54:00
7:54 PM,25.0,12.9,60,30.26,10.0,NW,9.2,18.4,N/A,,Clear,310,2013-02-16 01:54:00
8:54 PM,23.0,12.9,65,30.27,10.0,NW,8.1,-,N/A,,Clear,310,2013-02-16 02:54:00
9:54 PM,23.0,12.9,65,30.26,10.0,NW,6.9,-,N/A,,Clear,310,2013-02-16 03:54:00
10:54 PM,21.0,12.9,71,30.26,10.0,NW,5.8,-,N/A,,Clear,310,2013-02-16 04:54:00
11:54 PM,21.0,10.9,65,30.25,10.0,NW,8.1,-,N/A,,Clear,310,2013-02-16 05:54:00